User: anonymous   Login
Location: Unspecified
(0.0000°N, 0.0000°E)
Time: 06:36:21
(UTC+00:00)
Language:

CUTE 1.7 + AOD 2 - Orbit

View from above orbital plane
View from above orbital plane
View from above satellite
View from above satellite

Ground track
Ground track

The orbit data is extracted from the following two-line orbital elements,

1 32785U 08021C   20191.71743694  .00000132  00000-0  19821-4 0  9991
2 32785  97.5733 178.7555 0014470  62.7728 297.4962 14.88485399661255
Epoch (UTC): 09 July 2020 17:13:06
Eccentricity: 0.0014470
inclination: 97.5733°
perigee height: 592 km
apogee height: 613 km
right ascension of ascending node: 178.7555°
argument of perigee: 62.7728°
revolutions per day: 14.88485399
mean anomaly at epoch: 297.4962°
orbit number at epoch: 66125

The dashed part of the orbit path shows where the satellite is in the earth's shadow,  

DLR